[[{"header":{"parameterUnit":"m.s-1","parameterCategory":1,"la1":30.2991,"la2":30.254,"lo1":-89.0895,"lo2":-89.0444,"dy":0.0017,"dx":0.0017,"nx":28,"ny":28,"refTime":"2024-03-21T09:00:00:Z","depth":0,"parameterNumber":2,"parameterNumberName":"U-component_of_WINDS"},"data":[0,0,0,0,0,0,0,0,0,0,0,0,0,0,0,0,0,0,0,0,0,0,0,0,0,0,0,0,0,0,0,0,0,0,0,0,0,0,0,0,0,0,0,0,0,0,0,0,0,0,0,0,0,0,0,0,0,0,-5.8645,-5.8646,0,-5.8732,-5.8733,-5.8734,-5.8667,-5.8664,-5.8661,-5.8658,-5.8745,-5.875,-5.8755,0,0,0,0,0,0,0,0,0,0,0,0,0,-5.8421,-5.8425,-5.8645,-5.8646,-5.8647,-5.8731,-5.8733,-5.8734,-5.8667,-5.8663,-5.866,-5.8657,-5.8743,-5.8749,-5.8755,0,0,0,0,0,0,0,0,0,0,0,0,0,-5.8514,-5.8427,-5.8645,-5.8624,-5.8623,-5.8731,-5.8733,-5.8734,-5.8668,-5.8663,-5.8659,-5.8655,-5.8741,-5.8749,-5.8756,-5.8889,0,0,-5.8779,-5.8782,0,0,0,0,0,0,0,0,-5.8509,-5.8522,-5.8626,-5.8626,-5.8625,-5.8684,-5.8685,-5.8786,-5.8669,-5.8651,-5.8658,-5.8653,-5.8728,-5.8736,-5.8762,-5.8893,-5.8896,-5.8779,-5.8784,-5.8787,-5.8789,0,0,0,0,0,0,0,-5.8502,-5.8518,-5.8679,-5.8628,-5.8627,-5.861,-5.8618,-5.8704,-5.8712,-5.8652,-5.8647,-5.8659,-5.8727,-5.8755,-5.8763,-5.8898,-5.8779,-5.8786,-5.8791,-5.8793,-5.914,-5.9145,0,0,0,0,0,0,-5.8498,-5.8513,-5.8676,-5.8682,-5.8555,-5.8618,-5.8627,-5.8669,-5.8711,-5.8714,-5.8662,-5.8655,-5.8744,-5.8755,-5.8766,-5.8922,-5.8787,-5.8794,-5.8799,-5.9135,-5.9141,-5.9146,0,0,0,0,0,0,-5.8493,-5.8513,-5.8673,-5.8596,-5.8615,-5.8626,-5.8674,-5.8673,-5.8701,-5.8719,-5.872,-5.8689,-5.8741,-5.8756,-5.8858,-5.8924,-5.8798,-5.8804,-5.913,-5.9137,-5.9144,-5.9236,0,0,0,0,0,0,-5.8487,-5.8512,-5.8563,-5.8598,-5.862,-5.8764,-5.8678,-5.8678,-5.8714,-5.8706,-5.8745,-5.8747,-5.8739,-5.8848,-5.8866,-5.8932,-5.881,-5.9124,-5.9133,-5.9141,-5.9227,-5.9245,-5.9261,0,0,0,0,0,-5.848,-5.8585,-5.8565,-5.8586,-5.8683,-5.8768,-5.878,-5.8769,-5.872,-5.877,-5.8782,-5.8746,-5.8915,-5.8859,-5.8879,-5.8948,-5.912,-5.913,-5.9141,-5.9219,-5.9242,-5.926,0,0,0,0,0,0,-5.8556,-5.8589,-5.8568,-5.8688,-5.8726,-5.8756,-5.8819,-5.8794,-5.8845,-5.8835,-5.8819,-5.8829,-5.8936,-5.8953,-5.889,-5.9078,-5.9009,-5.9024,-5.9062,-5.9084,-5.91,-5.9092,-5.8816,0,0,0,0,0,-5.8587,-5.8654,-5.8679,-5.8783,-5.8803,-5.8809,-5.8845,-5.8834,-5.8872,-5.8887,-5.8906,-5.8944,-5.9006,-5.9046,-5.9104,-5.9231,-5.9237,-5.9289,-5.9306,-5.932,-5.9331,-5.9397,-5.942,-5.9181,-5.9181,-5.9181,0,0,-5.8651,-5.8678,-5.8721,-5.8799,-5.8827,-5.8895,-5.8822,-5.8898,-5.8948,-5.8898,-5.8995,-5.9012,-5.9053,-5.9168,-5.9219,-5.9185,-5.9399,-5.9333,-5.9344,-5.9348,-5.941,-5.9433,-5.9453,-5.9188,-5.9187,-5.9186,0,0,-5.8802,-5.8831,-5.8919,-5.8949,-5.8992,-5.8995,-5.9017,-5.9053,-5.9061,-5.9159,-5.9123,-5.9183,-5.929,-5.932,-5.935,-5.9515,-5.9482,-5.9535,-5.9621,-5.9686,-5.9705,-5.9721,-5.9777,-5.9797,-5.9547,-5.9548,-5.9548,0,-5.8876,-5.8978,-5.8967,-5.9045,-5.908,-5.9041,-5.9129,-5.9158,-5.9219,-5.9243,-5.9205,-5.9338,-5.9364,-5.9483,-5.9524,-5.9551,-5.9573,-5.9527,-5.9703,-5.972,-5.9735,-5.9787,-5.9809,-5.9553,-5.9553,-5.9552,-5.9552,0,-5.9065,-5.9136,-5.9203,-5.9262,-5.9305,-5.9388,-5.9389,-5.9434,-5.942,-5.9427,-5.9527,-5.9557,-5.9619,-5.9648,-5.9635,-5.9767,-5.9744,-5.9706,-5.9635,-5.9763,-5.9812,-5.9833,-5.9562,-5.956,-5.9558,-5.9556,0,0,-5.9262,-5.9316,-5.934,-5.9366,-5.9412,-5.9467,-5.9549,-5.961,-5.9648,-5.9692,-5.9758,-5.9851,-5.9815,-5.9849,-5.984,-5.9898,-6.0023,-5.9851,-5.9852,-5.9879,-6.0166,-6.0191,-6.0215,-6.0004,-6.0008,-6.0011,-6.0161,0,-5.9412,-5.9553,-5.9547,-5.9679,-5.9744,-5.9709,-5.9779,-5.9815,-5.9826,-5.9882,-5.9893,-5.9957,-5.9907,-5.9927,-5.9983,-5.9996,-6.0079,-5.9985,-6.0063,-6.0065,-6.0048,-6.0241,-6.0268,-6.0409,-6.0181,-6.0184,-6.0187,0,-5.9604,-5.9655,-5.9793,-5.983,-5.9857,-5.992,-5.9976,-6.0031,-6.0072,-6.0075,-6.0114,-6.0095,-6.0177,-6.0109,-6.0221,-6.0157,-6.0189,-6.02,-6.0206,-6.0208,-6.013,-6.0245,-6.0454,-6.0473,-6.0218,-6.0215,-6.0213,0,-5.9729,-5.9833,-5.9928,-5.9952,-5.9998,-6.0043,-6.0064,-6.0101,-6.0138,-6.0188,-6.0211,-6.027,-6.0301,-6.0347,-6.0345,-6.0296,-6.0457,-6.0389,-6.046,-6.046,-6.0491,-6.0488,-6.0703,-6.052,-6.052,-6.0519,-6.0519,0,-5.9894,-5.9979,-5.9984,-6.0043,-6.0137,-6.013,-6.0224,-6.024,-6.0273,-6.0334,-6.0309,-6.0366,-6.0362,-6.042,-6.0419,-6.051,-6.0526,-6.0529,-6.0527,-6.0528,-6.0527,-6.0545,-6.0534,-6.0525,-6.0524,-6.0523,-6.0522,0,-6.0047,-6.0055,-6.0156,-6.0192,-6.0203,-6.0271,-6.0301,-6.0356,-6.0365,-6.0442,-6.046,-6.0474,-6.0541,-6.0545,-6.0622,-6.0622,-6.0731,-6.0721,-6.0717,-6.0713,-6.0782,-6.0774,-6.1012,-6.1041,-6.0844,-6.0846,-6.0847,0,-6.0149,-6.0214,-6.0257,-6.0296,-6.032,-6.0383,-6.0421,-6.0419,-6.0459,-6.0511,-6.0559,-6.0625,-6.0675,-6.0784,-6.0801,-6.086,-6.0847,-6.0927,-6.0856,-6.0855,-6.0844,-6.0838,-6.0843,-6.0939,-6.0941,-6.0943,-6.0945,0,-6.0329,-6.0329,-6.0386,-6.0444,-6.0491,-6.0536,-6.0578,-6.0612,-6.0614,-6.0661,-6.0729,-6.0769,-6.0849,-6.0913,-6.0971,-6.0992,-6.0968,-6.0968,-6.0986,-6.0986,-6.0979,-6.098,-6.0749,-6.0961,-6.0959,-6.0958,-6.0957,-6.0957,-6.0456,-6.0511,-6.055,-6.0614,-6.0646,-6.0686,-6.0739,-6.0756,-6.0813,-6.0877,-6.0873,-6.0948,-6.0987,-6.1062,-6.1089,-6.1147,-6.112,-6.1148,-6.1154,-6.116,-6.1165,-6.0975,-6.1158,-6.1158,-6.1158,-6.1157,-6.1157,0,-6.063,-6.0655,-6.0714,-6.0774,-6.0824,-6.08,-6.0846,-6.0889,-6.0955,-6.0995,-6.1046,-6.1124,-6.1186,-6.1209,-6.127,-6.1312,-6.1303,-6.1328,-6.1322,-6.1327,-6.1188,-6.1164,-6.1334,-6.1334,-6.1334,-6.1334,-6.1334,-6.1334,-6.0727,-6.0818,-6.0824,-6.0931,-6.0954,-6.1027,-6.1055,-6.1092,-6.1123,-6.1212,-6.1264,-6.1279,-6.1311,-6.1374,-6.143,-6.1435,-6.1457,-6.1486,-6.1486,-6.1355,-6.1337,-6.1319,-6.1296,-6.1492,-6.1492,-6.1619,-6.162,-6.1621]},{"header":{"parameterUnit":"m.s-1","parameterCategory":1,"la1":30.2991,"la2":30.254,"lo1":-89.0895,"lo2":-89.0444,"dy":0.0017,"dx":0.0017,"nx":28,"ny":28,"refTime":"2024-03-21T09:00:00:Z","depth":0,"parameterNumber":3,"parameterNumberName":"V-component_of_WINDS"},"data":[0,0,0,0,0,0,0,0,0,0,0,0,0,0,0,0,0,0,0,0,0,0,0,0,0,0,0,0,0,0,0,0,0,0,0,0,0,0,0,0,0,0,0,0,0,0,0,0,0,0,0,0,0,0,0,0,0,0,3.459,3.4591,0,3.4716,3.4718,3.4719,3.4723,3.4722,3.472,3.4719,3.4847,3.4852,3.4856,0,0,0,0,0,0,0,0,0,0,0,0,0,3.4351,3.4355,3.4589,3.4591,3.4593,3.4716,3.4718,3.4719,3.4724,3.4722,3.472,3.4718,3.4845,3.4851,3.4857,0,0,0,0,0,0,0,0,0,0,0,0,0,3.4464,3.4357,3.4589,3.461,3.4613,3.4716,3.4718,3.472,3.4724,3.4722,3.472,3.4717,3.4844,3.4851,3.4858,3.4948,0,0,3.488,3.4883,0,0,0,0,0,0,0,0,3.4457,3.4472,3.4605,3.4608,3.4612,3.4702,3.4681,3.4796,3.4725,3.4682,3.4719,3.4716,3.48,3.4811,3.484,3.4954,3.4959,3.488,3.4885,3.4888,3.489,0,0,0,0,0,0,0,3.4449,3.4467,3.4639,3.4607,3.4611,3.4612,3.4626,3.4702,3.4752,3.4685,3.4686,3.4701,3.4802,3.4833,3.4843,3.4961,3.488,3.4887,3.4891,3.4894,3.5158,3.516,0,0,0,0,0,0,3.4438,3.446,3.4635,3.4643,3.4528,3.4619,3.4634,3.4675,3.4751,3.4761,3.4703,3.4701,3.4821,3.4834,3.4847,3.4959,3.4888,3.4895,3.4899,3.5155,3.5158,3.5161,0,0,0,0,0,0,3.4433,3.4453,3.463,3.4552,3.4575,3.4625,3.4672,3.4679,3.471,3.4765,3.4773,3.4725,3.482,3.4837,3.4923,3.4964,3.4898,3.4904,3.5152,3.5156,3.516,3.5183,0,0,0,0,0,0,3.4426,3.4451,3.4486,3.4553,3.4579,3.4705,3.4674,3.4683,3.4722,3.4721,3.4788,3.4797,3.482,3.4913,3.4931,3.4972,3.491,3.5149,3.5154,3.5159,3.5179,3.5187,3.5194,0,0,0,0,0,3.4417,3.4487,3.4488,3.4509,3.4624,3.4707,3.4722,3.4747,3.4726,3.4761,3.4797,3.4795,3.4956,3.4921,3.4942,3.4986,3.5146,3.5152,3.5158,3.5175,3.5185,3.5194,0,0,0,0,0,0,3.4423,3.4496,3.4498,3.4591,3.4643,3.4707,3.4753,3.4757,3.4815,3.4811,3.4839,3.4854,3.494,3.4972,3.4932,3.5079,3.5049,3.5059,3.5055,3.5065,3.5073,3.5063,3.4916,0,0,0,0,0,3.4435,3.4497,3.4557,3.4634,3.466,3.4702,3.4739,3.4754,3.4809,3.483,3.4872,3.4924,3.4987,3.5028,3.5088,3.5183,3.5199,3.5224,3.5232,3.5238,3.5247,3.5301,3.5313,3.5181,3.5181,3.5181,0,0,3.446,3.4508,3.4545,3.4636,3.4678,3.4741,3.472,3.4788,3.4835,3.484,3.4925,3.4957,3.5018,3.5109,3.5152,3.5138,3.5287,3.5246,3.525,3.5256,3.5308,3.5321,3.5332,3.5185,3.5184,3.5184,0,0,3.4539,3.4581,3.4651,3.4693,3.4757,3.4785,3.4802,3.4867,3.4889,3.4974,3.498,3.5037,3.5144,3.5187,3.5223,3.5321,3.5322,3.534,3.538,3.5433,3.5443,3.5453,3.5488,3.5501,3.5348,3.5348,3.5348,0,3.4563,3.4659,3.4685,3.4754,3.4794,3.4803,3.4873,3.4913,3.4994,3.5021,3.5005,3.5141,3.5182,3.5285,3.5309,3.5337,3.5358,3.5332,3.544,3.5449,3.5458,3.5493,3.5506,3.535,3.535,3.535,3.5349,0,3.4685,3.4752,3.48,3.4879,3.4924,3.4993,3.503,3.5073,3.5085,3.5115,3.5202,3.5253,3.5324,3.535,3.5361,3.5454,3.5444,3.5434,3.5404,3.5472,3.5505,3.5519,3.5353,3.5352,3.5351,3.5351,0,0,3.477,3.4864,3.4881,3.4918,3.499,3.5042,3.5112,3.5183,3.5219,3.5275,3.5334,3.5426,3.5417,3.5458,3.5475,3.5521,3.5596,3.5505,3.5507,3.5521,3.5703,3.5711,3.5726,3.5597,3.56,3.5602,3.5699,0,3.4858,3.4983,3.501,3.5117,3.518,3.519,3.5251,3.5302,3.5332,3.5389,3.5422,3.5487,3.547,3.5495,3.5541,3.5577,3.5633,3.5571,3.5653,3.5656,3.5638,3.5743,3.5752,3.584,3.5712,3.5714,3.5715,0,3.4977,3.5036,3.5151,3.5216,3.5243,3.5298,3.5366,3.542,3.5478,3.5497,3.5544,3.5556,3.563,3.5597,3.5699,3.5656,3.5691,3.5714,3.5719,3.5727,3.569,3.5756,3.5869,3.5883,3.5736,3.5734,3.5733,0,3.5029,3.5137,3.522,3.5251,3.5329,3.5367,3.5401,3.5457,3.5499,3.5558,3.5586,3.5652,3.5689,3.5741,3.5771,3.5744,3.5871,3.584,3.5889,3.5888,3.5915,3.5913,3.6037,3.5937,3.5937,3.5937,3.5936,0,3.5124,3.5194,3.5245,3.5296,3.5375,3.5405,3.5482,3.5516,3.5566,3.5624,3.5636,3.569,3.5727,3.5786,3.581,3.5892,3.5908,3.5925,3.5931,3.5925,3.5923,3.5949,3.5943,3.594,3.5939,3.5939,3.5938,0,3.5195,3.5232,3.5324,3.539,3.5409,3.5464,3.5521,3.5572,3.5602,3.5675,3.5694,3.5742,3.5813,3.5848,3.5936,3.5952,3.6045,3.6046,3.6025,3.6028,3.6075,3.607,3.622,3.6241,3.6126,3.6127,3.6128,0,3.5254,3.5308,3.5382,3.5422,3.5457,3.5521,3.5564,3.5596,3.564,3.5712,3.5753,3.5825,3.5884,3.5997,3.6039,3.6107,3.611,3.6158,3.612,3.6113,3.6112,3.6109,3.6115,3.6165,3.6166,3.6167,3.6168,0,3.5355,3.5371,3.5433,3.5501,3.5552,3.5608,3.5662,3.5694,3.5735,3.5784,3.5857,3.5903,3.5993,3.6064,3.6135,3.617,3.6177,3.6179,3.6194,3.6189,3.6175,3.6184,3.6044,3.6176,3.6175,3.6174,3.6174,3.6173,3.5423,3.5472,3.5532,3.56,3.5645,3.5696,3.5747,3.5784,3.5846,3.5923,3.5937,3.6015,3.6073,3.6169,3.6207,3.6268,3.6258,3.6279,3.6285,3.629,3.6293,3.6165,3.6281,3.6281,3.6281,3.6281,3.6281,0,3.5526,3.5565,3.5627,3.5704,3.5758,3.5759,3.582,3.5865,3.5934,3.5988,3.6046,3.6131,3.62,3.6249,3.6319,3.6359,3.6364,3.6377,3.6375,3.6383,3.6298,3.6278,3.6372,3.6372,3.6372,3.6372,3.6372,3.6372,3.5585,3.5669,3.5693,3.5799,3.5838,3.5914,3.5949,3.5997,3.604,3.6134,3.6192,3.6224,3.6276,3.6351,3.6415,3.6427,3.6453,3.6467,3.6479,3.6399,3.6389,3.638,3.6362,3.6472,3.6472,3.656,3.6561,3.6561]}]]